This is the latest recevied weather packets stored in our database for station/object W7TTE. If no packets are shown the sender has not sent any weather packets the latest 10 day(s).
| Time | Temp. | Humidity | Pressure | Rain* | Wind** | Luminosity | Snow |
|---|---|---|---|---|---|---|---|
| 1777677590 | 32.22° C | 18% | 1010.7 hPa | 0 mm | - | 350 W/m² | - |
| 1777677289 | 32.78° C | 18% | 1010.9 hPa | 0 mm | - | 365 W/m² | - |
| 1777676986 | 32.78° C | 19% | 1010.8 hPa | 0 mm | - | 382 W/m² | - |
| 1777676685 | 33.33° C | 18% | 1010.7 hPa | 0 mm | - | 396 W/m² | - |
| 1777676383 | 33.33° C | 19% | 1010.9 hPa | 0 mm | - | 411 W/m² | - |
| 1777676080 | 32.78° C | 20% | 1011 hPa | 0 mm | - | 426 W/m² | - |
| 1777675776 | 32.22° C | 21% | 1011 hPa | 0 mm | - | 443 W/m² | - |
| 1777675473 | 32.78° C | 22% | 1011 hPa | 0 mm | - | 456 W/m² | - |
| 1777675170 | 32.78° C | 22% | 1011.2 hPa | 0 mm | - | 472 W/m² | - |
| 1777674866 | 32.78° C | 22% | 1010.9 hPa | 0 mm | - | 490 W/m² | - |
| 1777674563 | 33.33° C | 21% | 1011.1 hPa | 0 mm | - | 504 W/m² | - |
| 1777674261 | 32.78° C | 22% | 1011.4 hPa | 0 mm | - | 521 W/m² | - |
| 1777673956 | 32.22° C | 22% | 1011.3 hPa | 0 mm | - | 530 W/m² | - |
| 1777673653 | 31.67° C | 23% | 1011.4 hPa | 0 mm | - | 545 W/m² | - |
| 1777673351 | 32.78° C | 23% | 1011.4 hPa | 0 mm | - | 558 W/m² | - |
| 1777673049 | 32.22° C | 24% | 1011.5 hPa | 0 mm | - | 571 W/m² | - |
| 1777672744 | 32.22° C | 23% | 1011.6 hPa | 0 mm | - | 584 W/m² | - |
| 1777672441 | 32.22° C | 22% | 1011.7 hPa | 0 mm | - | 598 W/m² | - |
| 1777672136 | 31.67° C | 23% | 1011.9 hPa | 0 mm | - | 609 W/m² | - |
| 1777671832 | 31.67° C | 23% | 1011.8 hPa | 0 mm | - | 622 W/m² | - |
| 1777671528 | 31.67° C | 24% | 1011.8 hPa | 0 mm | - | 633 W/m² | - |
| 1777671224 | 30.56° C | 23% | 1012.1 hPa | 0 mm | - | 645 W/m² | - |
| 1777670920 | 31.11° C | 23% | 1012.1 hPa | 0 mm | - | 657 W/m² | - |
| 1777670617 | 31.11° C | 23% | 1012.2 hPa | 0 mm | - | 667 W/m² | - |
| 1777670314 | 31.67° C | 22% | 1012.4 hPa | 0 mm | - | 675 W/m² | - |
* Rain latest hour (hover to see other rain measurements)
** Current wind speed in m/s (hover to see current wind gust speed)